Time,TemperatureF,DewpointF,PressureIn,WindDirection,WindDirectionDegrees,WindSpeedMPH,WindSpeedGustMPH,Humidity,HourlyPrecipIn,Conditions,Clouds,dailyrainin,SoftwareType,DateUTC
2013-01-19 00:00:00,16.4,3.1,30.36,SW,232,4.0,7.0,55,0.00,,CLR,0.00,VWS V14.01,2013-01-19 05:00:00,
2013-01-19 00:01:00,16.5,3.2,30.36,SW,214,8.0,9.0,55,0.00,,CLR,0.00,VWS V14.01,2013-01-19 05:01:00,
2013-01-19 00:03:00,16.7,3.3,30.36,West,267,2.0,11.0,55,0.00,,CLR,0.00,VWS V14.01,2013-01-19 05:03:00,
2013-01-19 00:08:00,17.0,3.6,30.36,SW,233,3.0,10.0,55,0.00,,CLR,0.00,VWS V14.01,2013-01-19 05:08:00,
2013-01-19 00:13:00,17.3,3.9,30.35,SW,215,10.0,10.0,55,0.00,,CLR,0.00,VWS V14.01,2013-01-19 05:13:00,
2013-01-19 00:18:00,17.4,4.0,30.36,SW,217,6.0,7.0,55,0.00,,CLR,0.00,VWS V14.01,2013-01-19 05:18:00,
2013-01-19 00:23:00,17.5,4.1,30.36,WSW,241,5.0,8.0,55,0.00,,BKN090,0.00,VWS V14.01,2013-01-19 05:23:00,
2013-01-19 00:28:00,17.7,4.3,30.35,WSW,247,3.0,3.0,55,0.00,,BKN090,0.00,VWS V14.01,2013-01-19 05:28:00,
2013-01-19 00:33:00,17.8,4.4,30.35,SW,221,3.0,6.0,55,0.00,,BKN090,0.00,VWS V14.01,2013-01-19 05:33:00,
2013-01-19 00:38:00,18.0,4.6,30.35,SSW,207,1.0,5.0,55,0.00,,BKN090,0.00,VWS V14.01,2013-01-19 05:38:00,
2013-01-19 00:43:00,18.1,5.1,30.35,NW,314,3.0,5.0,56,0.00,,BKN090,0.00,VWS V14.01,2013-01-19 05:43:00,
2013-01-19 00:48:00,18.2,5.2,30.35,SSW,204,6.0,7.0,56,0.00,,BKN090,0.00,VWS V14.01,2013-01-19 05:48:00,
2013-01-19 00:53:00,18.3,5.6,30.35,SSW,195,5.0,6.0,57,0.00,,BKN090,0.00,VWS V14.01,2013-01-19 05:53:00,
2013-01-19 00:58:00,18.6,5.5,30.34,SW,235,3.0,7.0,56,0.00,,BKN090,0.00,VWS V14.01,2013-01-19 05:58:00,
2013-01-19 01:03:00,18.7,6.0,30.34,SW,218,4.0,6.0,57,0.00,,OVC095,0.00,VWS V14.01,2013-01-19 06:03:00,
2013-01-19 01:08:00,18.8,6.1,30.34,SW,221,4.0,6.0,57,0.00,,OVC095,0.00,VWS V14.01,2013-01-19 06:08:00,
2013-01-19 01:13:00,18.9,6.6,30.35,West,281,3.0,4.0,58,0.00,,OVC095,0.00,VWS V14.01,2013-01-19 06:13:00,
2013-01-19 01:18:00,19.0,6.7,30.35,WSW,249,2.0,5.0,58,0.00,,OVC095,0.00,VWS V14.01,2013-01-19 06:18:00,
2013-01-19 01:23:00,19.2,6.9,30.35,SW,229,3.0,6.0,58,0.00,,OVC095,0.00,VWS V14.01,2013-01-19 06:23:00,
2013-01-19 01:28:00,19.3,7.3,30.35,SW,218,3.0,7.0,59,0.00,,OVC095,0.00,VWS V14.01,2013-01-19 06:28:00,
2013-01-19 01:33:00,19.6,7.6,30.35,West,270,2.0,2.0,59,0.00,,OVC095,0.00,VWS V14.01,2013-01-19 06:33:00,
2013-01-19 01:38:00,19.9,7.9,30.35,WSW,239,3.0,7.0,59,0.00,,OVC095,0.00,VWS V14.01,2013-01-19 06:38:00,
2013-01-19 01:43:00,20.2,8.2,30.34,SW,235,3.0,7.0,59,0.00,,OVC095,0.00,VWS V14.01,2013-01-19 06:43:00,
2013-01-19 01:48:00,20.5,8.8,30.34,SSW,211,4.0,7.0,60,0.00,,OVC095,0.00,VWS V14.01,2013-01-19 06:48:00,
2013-01-19 01:53:00,21.0,9.3,30.34,SW,221,8.0,8.0,60,0.00,,OVC095,0.00,VWS V14.01,2013-01-19 06:53:00,
2013-01-19 01:58:00,21.3,9.6,30.33,WSW,248,2.0,5.0,60,0.00,,OVC095,0.00,VWS V14.01,2013-01-19 06:58:00,
2013-01-19 02:03:00,21.7,9.6,30.33,SW,229,8.0,10.0,59,0.00,,OVC060,0.00,VWS V14.01,2013-01-19 07:03:00,
2013-01-19 02:08:00,21.9,10.2,30.33,SSW,211,3.0,5.0,60,0.00,,OVC060,0.00,VWS V14.01,2013-01-19 07:08:00,
2013-01-19 02:13:00,22.1,10.4,30.33,SW,222,5.0,7.0,60,0.00,,OVC060,0.00,VWS V14.01,2013-01-19 07:13:00,
2013-01-19 02:18:00,22.7,10.5,30.32,SE,137,8.0,14.0,59,0.00,,OVC060,0.00,VWS V14.01,2013-01-19 07:18:00,
2013-01-19 02:23:00,23.2,11.0,30.32,WSW,243,10.0,13.0,59,0.00,,OVC060,0.00,VWS V14.01,2013-01-19 07:23:00,
2013-01-19 02:28:00,23.8,10.8,30.31,SSW,209,2.0,11.0,57,0.00,,OVC060,0.00,VWS V14.01,2013-01-19 07:28:00,
2013-01-19 02:33:00,24.2,10.8,30.31,SW,217,6.0,11.0,56,0.00,,OVC060,0.00,VWS V14.01,2013-01-19 07:33:00,
2013-01-19 02:38:00,24.5,11.1,30.31,South,169,2.0,7.0,56,0.00,,OVC060,0.00,VWS V14.01,2013-01-19 07:38:00,
2013-01-19 02:43:00,24.6,11.2,30.30,SSW,213,6.0,8.0,56,0.00,,OVC060,0.00,VWS V14.01,2013-01-19 07:43:00,
2013-01-19 02:48:00,24.8,11.3,30.30,WSW,239,4.0,11.0,56,0.00,,OVC060,0.00,VWS V14.01,2013-01-19 07:48:00,
2013-01-19 02:53:00,24.9,11.0,30.29,SSW,204,2.0,10.0,55,0.00,,OVC060,0.00,VWS V14.01,2013-01-19 07:53:00,
2013-01-19 02:58:00,24.9,11.0,30.29,West,280,4.0,10.0,55,0.00,,OVC060,0.00,VWS V14.01,2013-01-19 07:58:00,
2013-01-19 03:03:00,25.0,11.1,30.28,SSW,210,1.0,8.0,55,0.00,,OVC075,0.00,VWS V14.01,2013-01-19 08:03:00,
2013-01-19 03:08:00,25.0,11.5,30.28,SW,223,5.0,11.0,56,0.00,,OVC075,0.00,VWS V14.01,2013-01-19 08:08:00,
2013-01-19 03:13:00,25.0,11.5,30.28,SSW,207,1.0,6.0,56,0.00,,OVC075,0.00,VWS V14.01,2013-01-19 08:13:00,
2013-01-19 03:18:00,25.1,12.0,30.27,WSW,253,3.0,12.0,57,0.00,,OVC075,0.00,VWS V14.01,2013-01-19 08:18:00,
2013-01-19 03:23:00,25.1,12.4,30.28,SW,226,6.0,10.0,58,0.00,,OVC075,0.00,VWS V14.01,2013-01-19 08:23:00,
2013-01-19 03:28:00,25.3,12.6,30.28,WSW,247,5.0,6.0,58,0.00,,OVC075,0.00,VWS V14.01,2013-01-19 08:28:00,
2013-01-19 03:33:00,25.4,12.3,30.27,West,266,3.0,10.0,57,0.00,,OVC075,0.00,VWS V14.01,2013-01-19 08:33:00,
2013-01-19 03:38:00,25.4,12.3,30.26,West,273,3.0,9.0,57,0.00,,OVC075,0.00,VWS V14.01,2013-01-19 08:38:00,
2013-01-19 03:43:00,25.5,12.4,30.26,SSW,203,2.0,5.0,57,0.00,,OVC075,0.00,VWS V14.01,2013-01-19 08:43:00,
2013-01-19 03:48:00,25.5,12.4,30.25,West,259,4.0,8.0,57,0.00,,OVC075,0.00,VWS V14.01,2013-01-19 08:48:00,
2013-01-19 03:53:00,25.6,12.5,30.25,West,259,5.0,8.0,57,0.00,,OVC075,0.00,VWS V14.01,2013-01-19 08:53:00,
2013-01-19 03:58:00,25.7,12.6,30.25,West,274,4.0,5.0,57,0.00,,OVC075,0.00,VWS V14.01,2013-01-19 08:58:00,
2013-01-19 04:03:00,25.8,12.7,30.25,SSW,201,8.0,10.0,57,0.00,,OVC065,0.00,VWS V14.01,2013-01-19 09:03:00,
2013-01-19 04:08:00,26.1,13.0,30.24,SW,221,9.0,10.0,57,0.00,,OVC065,0.00,VWS V14.01,2013-01-19 09:08:00,
2013-01-19 04:13:00,26.3,13.1,30.23,NW,307,8.0,15.0,57,0.00,,OVC065,0.00,VWS V14.01,2013-01-19 09:13:00,
2013-01-19 04:18:00,26.3,13.1,30.23,SW,222,4.0,9.0,57,0.00,,OVC065,0.00,VWS V14.01,2013-01-19 09:18:00,
2013-01-19 04:23:00,26.4,13.2,30.23,West,270,4.0,10.0,57,0.00,,OVC065,0.00,VWS V14.01,2013-01-19 09:23:00,
2013-01-19 04:28:00,26.4,13.2,30.23,WSW,256,12.0,13.0,57,0.00,,OVC065,0.00,VWS V14.01,2013-01-19 09:28:00,
2013-01-19 04:33:00,26.5,13.3,30.23,West,278,8.0,12.0,57,0.00,,OVC065,0.00,VWS V14.01,2013-01-19 09:33:00,
2013-01-19 04:38:00,26.6,13.4,30.22,West,263,5.0,18.0,57,0.00,,OVC065,0.00,VWS V14.01,2013-01-19 09:38:00,
2013-01-19 04:43:00,26.6,13.0,30.22,WSW,249,11.0,20.0,56,0.00,,OVC065,0.00,VWS V14.01,2013-01-19 09:43:00,
2013-01-19 04:48:00,26.7,13.5,30.22,WSW,238,3.0,9.0,57,0.00,,OVC065,0.00,VWS V14.01,2013-01-19 09:48:00,
2013-01-19 04:53:00,26.6,13.8,30.21,SSE,151,9.0,12.0,58,0.00,,OVC065,0.00,VWS V14.01,2013-01-19 09:53:00,
2013-01-19 04:58:00,26.6,13.8,30.21,SW,215,14.0,14.0,58,0.00,,OVC065,0.00,VWS V14.01,2013-01-19 09:58:00,
2013-01-19 05:03:00,26.6,14.2,30.21,WSW,239,8.0,14.0,59,0.00,,OVC080,0.00,VWS V14.01,2013-01-19 10:03:00,
2013-01-19 05:08:00,26.6,14.6,30.21,SW,227,6.0,12.0,60,0.00,,OVC080,0.00,VWS V14.01,2013-01-19 10:08:00,
2013-01-19 05:13:00,26.6,14.6,30.21,SW,232,9.0,9.0,60,0.00,,OVC080,0.00,VWS V14.01,2013-01-19 10:13:00,
2013-01-19 05:18:00,26.7,14.7,30.20,SW,219,4.0,17.0,60,0.00,,OVC080,0.00,VWS V14.01,2013-01-19 10:18:00,
2013-01-19 05:23:00,26.8,14.8,30.20,SSW,198,6.0,11.0,60,0.00,,OVC080,0.00,VWS V14.01,2013-01-19 10:23:00,
2013-01-19 05:28:00,26.8,14.8,30.21,SSW,193,7.0,9.0,60,0.00,,OVC080,0.00,VWS V14.01,2013-01-19 10:28:00,
2013-01-19 05:33:00,26.9,14.9,30.20,SSW,198,4.0,12.0,60,0.00,,OVC080,0.00,VWS V14.01,2013-01-19 10:33:00,
2013-01-19 05:38:00,27.0,15.0,30.20,WSW,238,7.0,14.0,60,0.00,,OVC080,0.00,VWS V14.01,2013-01-19 10:38:00,
2013-01-19 05:43:00,27.2,15.2,30.19,WSW,256,9.0,12.0,60,0.00,,OVC080,0.00,VWS V14.01,2013-01-19 10:43:00,
2013-01-19 05:48:00,27.3,15.3,30.19,WSW,249,7.0,8.0,60,0.00,,OVC080,0.00,VWS V14.01,2013-01-19 10:48:00,
2013-01-19 05:53:00,27.4,15.4,30.19,SW,236,6.0,9.0,60,0.00,,OVC080,0.00,VWS V14.01,2013-01-19 10:53:00,
2013-01-19 05:58:00,27.6,15.6,30.18,West,266,5.0,10.0,60,0.00,,OVC080,0.00,VWS V14.01,2013-01-19 10:58:00,
2013-01-19 06:03:00,27.7,15.6,30.18,WSW,242,3.0,10.0,60,0.00,,OVC065,0.00,VWS V14.01,2013-01-19 11:03:00,
2013-01-19 06:08:00,27.8,15.4,30.17,SSE,152,8.0,9.0,59,0.00,,OVC065,0.00,VWS V14.01,2013-01-19 11:08:00,
2013-01-19 06:13:00,27.9,15.4,30.17,WNW,300,7.0,14.0,59,0.00,,OVC065,0.00,VWS V14.01,2013-01-19 11:13:00,
2013-01-19 07:47:00,27.8,16.1,30.16,SW,233,5.0,8.0,61,0.00,,OVC100,0.00,VWS V14.01,2013-01-19 12:47:00,
2013-01-19 07:48:00,27.8,16.1,30.15,SSW,197,2.0,8.0,61,0.00,,OVC100,0.00,VWS V14.01,2013-01-19 12:48:00,
2013-01-19 07:53:00,27.7,16.0,30.15,SW,219,4.0,9.0,61,0.00,,OVC100,0.00,VWS V14.01,2013-01-19 12:53:00,
2013-01-19 07:58:00,27.8,16.1,30.14,SSE,167,1.0,8.0,61,0.00,,OVC100,0.00,VWS V14.01,2013-01-19 12:58:00,
2013-01-19 08:03:00,27.8,16.5,30.15,West,281,7.0,11.0,62,0.00,,OVC055,0.00,VWS V14.01,2013-01-19 13:03:00,
2013-01-19 08:08:00,27.9,16.6,30.15,WNW,293,7.0,7.0,62,0.00,,OVC055,0.00,VWS V14.01,2013-01-19 13:08:00,
2013-01-19 08:13:00,27.9,17.0,30.14,WNW,284,3.0,6.0,63,0.00,,OVC055,0.00,VWS V14.01,2013-01-19 13:13:00,
2013-01-19 08:18:00,27.9,17.0,30.15,SSE,153,4.0,6.0,63,0.00,,OVC055,0.00,VWS V14.01,2013-01-19 13:18:00,
2013-01-19 08:23:00,28.0,17.0,30.15,South,186,6.0,9.0,63,0.00,,OVC055,0.00,VWS V14.01,2013-01-19 13:23:00,
2013-01-19 08:28:00,28.1,17.1,30.15,South,184,3.0,3.0,63,0.00,,OVC055,0.00,VWS V14.01,2013-01-19 13:28:00,
2013-01-19 08:33:00,28.3,17.3,30.15,WSW,249,3.0,7.0,63,0.00,,OVC055,0.00,VWS V14.01,2013-01-19 13:33:00,
2013-01-19 08:38:00,28.4,17.4,30.15,SSE,151,3.0,4.0,63,0.00,,OVC055,0.00,VWS V14.01,2013-01-19 13:38:00,
2013-01-19 08:43:00,28.5,17.5,30.15,NW,308,1.0,4.0,63,0.00,,OVC055,0.00,VWS V14.01,2013-01-19 13:43:00,
2013-01-19 08:48:00,28.5,17.5,30.15,SSW,201,3.0,4.0,63,0.00,,OVC055,0.00,VWS V14.01,2013-01-19 13:48:00,
2013-01-19 08:53:00,28.6,17.6,30.15,West,264,3.0,8.0,63,0.00,,OVC055,0.00,VWS V14.01,2013-01-19 13:53:00,
2013-01-19 08:58:00,28.8,17.8,30.14,West,278,2.0,4.0,63,0.00,,OVC055,0.00,VWS V14.01,2013-01-19 13:58:00,
2013-01-19 09:03:00,28.8,17.8,30.14,SW,214,6.0,8.0,63,0.00,,OVC085,0.00,VWS V14.01,2013-01-19 14:03:00,
2013-01-19 09:08:00,29.0,18.0,30.14,West,273,2.0,6.0,63,0.00,,OVC085,0.00,VWS V14.01,2013-01-19 14:08:00,
2013-01-19 09:13:00,29.1,18.1,30.14,West,260,1.0,3.0,63,0.00,,OVC085,0.00,VWS V14.01,2013-01-19 14:13:00,
2013-01-19 09:18:00,29.2,18.5,30.14,West,277,1.0,6.0,64,0.00,,OVC085,0.00,VWS V14.01,2013-01-19 14:18:00,
2013-01-19 09:23:00,29.3,18.6,30.14,SW,219,6.0,7.0,64,0.00,,OVC085,0.00,VWS V14.01,2013-01-19 14:23:00,
2013-01-19 09:28:00,29.5,18.8,30.14,West,273,1.0,2.0,64,0.00,,OVC085,0.00,VWS V14.01,2013-01-19 14:28:00,
2013-01-19 09:33:00,29.6,18.9,30.13,SW,229,2.0,5.0,64,0.00,,OVC085,0.00,VWS V14.01,2013-01-19 14:33:00,
2013-01-19 09:38:00,29.8,19.1,30.13,WNW,285,1.0,5.0,64,0.00,,OVC085,0.00,VWS V14.01,2013-01-19 14:38:00,
2013-01-19 09:43:00,29.9,19.2,30.13,SSE,160,2.0,6.0,64,0.00,,OVC085,0.00,VWS V14.01,2013-01-19 14:43:00,
2013-01-19 09:48:00,30.1,19.0,30.12,WNW,294,2.0,7.0,63,0.00,,OVC085,0.00,VWS V14.01,2013-01-19 14:48:00,
2013-01-19 09:54:00,30.4,19.7,30.12,West,276,6.0,7.0,64,0.00,,OVC085,0.00,VWS V14.01,2013-01-19 14:54:00,
2013-01-19 09:59:00,30.6,19.5,30.12,WSW,252,3.0,6.0,63,0.00,,OVC085,0.00,VWS V14.01,2013-01-19 14:59:00,
2013-01-19 10:04:00,30.8,19.7,30.12,WSW,239,3.0,3.0,63,0.00,,OVC080,0.00,VWS V14.01,2013-01-19 15:04:00,
2013-01-19 10:09:00,31.1,19.6,30.12,NE,38,2.0,4.0,62,0.00,,OVC080,0.00,VWS V14.01,2013-01-19 15:09:00,
2013-01-19 10:14:00,31.3,19.8,30.12,West,259,3.0,5.0,62,0.00,,OVC080,0.00,VWS V14.01,2013-01-19 15:14:00,
2013-01-19 10:19:00,31.6,20.1,30.11,West,259,3.0,4.0,62,0.00,,OVC080,0.00,VWS V14.01,2013-01-19 15:19:00,
2013-01-19 10:24:00,31.8,19.9,30.11,West,267,1.0,6.0,61,0.00,,OVC080,0.00,VWS V14.01,2013-01-19 15:24:00,
2013-01-19 10:29:00,32.0,20.9,30.11,SW,228,4.0,4.0,63,0.00,,OVC080,0.00,VWS V14.01,2013-01-19 15:29:00,
2013-01-19 10:34:00,32.2,20.7,30.10,WNW,283,3.0,6.0,62,0.00,,OVC080,0.00,VWS V14.01,2013-01-19 15:34:00,
2013-01-19 10:39:00,32.4,20.5,30.10,SSW,197,4.0,9.0,61,0.00,,OVC080,0.00,VWS V14.01,2013-01-19 15:39:00,
2013-01-19 10:44:00,32.7,20.8,30.10,West,265,4.0,7.0,61,0.00,,OVC080,0.00,VWS V14.01,2013-01-19 15:44:00,
2013-01-19 10:49:00,32.9,20.5,30.09,West,269,2.0,7.0,60,0.00,,OVC080,0.00,VWS V14.01,2013-01-19 15:49:00,
2013-01-19 10:54:00,33.2,21.2,30.09,WNW,297,1.0,5.0,61,0.00,,OVC080,0.00,VWS V14.01,2013-01-19 15:54:00,
2013-01-19 10:59:00,33.4,21.0,30.08,WNW,294,2.0,5.0,60,0.00,,OVC080,0.00,VWS V14.01,2013-01-19 15:59:00,
2013-01-19 11:04:00,33.7,21.3,30.08,West,280,2.0,4.0,60,0.00,,OVC080,0.00,VWS V14.01,2013-01-19 16:04:00,
2013-01-19 11:09:00,34.1,21.7,30.07,SW,218,2.0,3.0,60,0.00,,OVC080,0.00,VWS V14.01,2013-01-19 16:09:00,
2013-01-19 11:14:00,34.3,21.5,30.06,SSW,211,2.0,3.0,59,0.00,,OVC080,0.00,VWS V14.01,2013-01-19 16:14:00,
2013-01-19 11:19:00,34.5,21.7,30.06,SW,226,1.0,4.0,59,0.00,,OVC080,0.00,VWS V14.01,2013-01-19 16:19:00,
2013-01-19 11:24:00,34.7,21.9,30.05,ESE,118,5.0,6.0,59,0.00,,OVC080,0.00,VWS V14.01,2013-01-19 16:24:00,
2013-01-19 11:29:00,35.0,21.7,30.05,West,264,3.0,5.0,58,0.00,,OVC080,0.00,VWS V14.01,2013-01-19 16:29:00,
2013-01-19 11:34:00,35.2,21.9,30.05,WSW,245,2.0,6.0,58,0.00,,OVC080,0.00,VWS V14.01,2013-01-19 16:34:00,
2013-01-19 11:39:00,35.4,21.7,30.04,SW,219,7.0,8.0,57,0.00,,OVC080,0.00,VWS V14.01,2013-01-19 16:39:00,
2013-01-19 11:44:00,35.6,22.3,30.04,WSW,245,6.0,7.0,58,0.00,,OVC080,0.00,VWS V14.01,2013-01-19 16:44:00,
2013-01-19 11:49:00,35.5,22.2,30.03,West,269,3.0,6.0,58,0.00,,OVC080,0.00,VWS V14.01,2013-01-19 16:49:00,
2013-01-19 11:54:00,35.7,22.4,30.03,WNW,292,3.0,6.0,58,0.00,,OVC080,0.00,VWS V14.01,2013-01-19 16:54:00,
2013-01-19 11:59:00,35.9,22.2,30.02,South,188,1.0,4.0,57,0.00,,OVC080,0.00,VWS V14.01,2013-01-19 16:59:00,
2013-01-19 12:04:00,36.2,22.9,30.02,WSW,253,2.0,3.0,58,0.00,,OVC080,0.00,VWS V14.01,2013-01-19 17:04:00,
2013-01-19 12:09:00,36.5,22.7,30.02,WNW,287,1.0,4.0,57,0.00,,OVC080,0.00,VWS V14.01,2013-01-19 17:09:00,
2013-01-19 12:14:00,36.9,23.1,30.01,West,269,2.0,2.0,57,0.00,,OVC080,0.00,VWS V14.01,2013-01-19 17:14:00,
2013-01-19 12:19:00,37.1,22.9,30.01,West,281,3.0,3.0,56,0.00,,OVC080,0.00,VWS V14.01,2013-01-19 17:19:00,
2013-01-19 12:24:00,37.5,23.2,30.01,WNW,283,1.0,7.0,56,0.00,,OVC080,0.00,VWS V14.01,2013-01-19 17:24:00,
2013-01-19 12:29:00,37.8,23.5,30.00,WSW,256,2.0,5.0,56,0.00,,OVC080,0.00,VWS V14.01,2013-01-19 17:29:00,
2013-01-19 12:34:00,38.2,23.5,30.00,SW,232,3.0,6.0,55,0.00,,OVC080,0.00,VWS V14.01,2013-01-19 17:34:00,
2013-01-19 12:39:00,38.3,23.6,30.00,West,278,1.0,2.0,55,0.00,,OVC080,0.00,VWS V14.01,2013-01-19 17:39:00,
2013-01-19 12:44:00,38.6,23.4,30.00,WNW,285,1.0,2.0,54,0.00,,OVC080,0.00,VWS V14.01,2013-01-19 17:44:00,
2013-01-19 12:50:00,38.9,24.1,29.99,West,271,1.0,3.0,55,0.00,,OVC080,0.00,VWS V14.01,2013-01-19 17:50:00,
2013-01-19 12:55:00,38.8,23.6,29.99,SW,214,3.0,5.0,54,0.00,,OVC080,0.00,VWS V14.01,2013-01-19 17:55:00,
2013-01-19 13:00:00,39.0,24.2,29.99,West,271,1.0,1.0,55,0.00,,OVC080,0.00,VWS V14.01,2013-01-19 18:00:00,
2013-01-19 13:05:00,39.3,24.1,29.98,WNW,283,2.0,2.0,54,0.00,,BKN080,0.00,VWS V14.01,2013-01-19 18:05:00,
2013-01-19 13:10:00,39.3,24.5,29.98,WNW,297,1.0,1.0,55,0.00,,BKN080,0.00,VWS V14.01,2013-01-19 18:10:00,
2013-01-19 13:15:00,39.4,24.1,29.98,SW,227,1.0,3.0,54,0.00,,BKN080,0.00,VWS V14.01,2013-01-19 18:15:00,
2013-01-19 13:20:00,39.9,24.6,29.97,South,179,4.0,6.0,54,0.00,,BKN080,0.00,VWS V14.01,2013-01-19 18:20:00,
2013-01-19 13:25:00,40.1,24.4,29.97,West,278,3.0,6.0,53,0.00,,BKN080,0.00,VWS V14.01,2013-01-19 18:25:00,
2013-01-19 13:30:00,40.3,24.5,29.96,West,260,3.0,3.0,53,0.00,,BKN080,0.00,VWS V14.01,2013-01-19 18:30:00,
2013-01-19 13:35:00,40.5,24.7,29.96,SSW,210,4.0,6.0,53,0.00,,BKN080,0.00,VWS V14.01,2013-01-19 18:35:00,
2013-01-19 13:40:00,40.7,24.9,29.96,WSW,252,2.0,4.0,53,0.00,,BKN080,0.00,VWS V14.01,2013-01-19 18:40:00,
2013-01-19 13:45:00,40.7,24.9,29.96,West,259,1.0,1.0,53,0.00,,BKN080,0.00,VWS V14.01,2013-01-19 18:45:00,
2013-01-19 13:50:00,40.8,25.0,29.96,West,278,2.0,3.0,53,0.00,,BKN080,0.00,VWS V14.01,2013-01-19 18:50:00,
2013-01-19 13:55:00,40.8,25.0,29.96,WNW,283,1.0,4.0,53,0.00,,BKN080,0.00,VWS V14.01,2013-01-19 18:55:00,
2013-01-19 14:01:00,40.7,24.9,29.96,WNW,292,3.0,3.0,53,0.00,,FEW080,0.00,VWS V14.01,2013-01-19 19:01:00,
2013-01-19 14:06:00,40.9,24.6,29.96,SW,218,4.0,7.0,52,0.00,,FEW080,0.00,VWS V14.01,2013-01-19 19:06:00,
2013-01-19 14:11:00,41.1,24.8,29.95,WSW,242,4.0,6.0,52,0.00,,FEW080,0.00,VWS V14.01,2013-01-19 19:11:00,
2013-01-19 14:16:00,41.1,24.4,29.95,West,266,3.0,4.0,51,0.00,,FEW080,0.00,VWS V14.01,2013-01-19 19:16:00,
2013-01-19 14:22:00,41.2,24.9,29.95,SSW,202,3.0,4.0,52,0.00,,FEW080,0.00,VWS V14.01,2013-01-19 19:22:00,
2013-01-19 14:27:00,41.2,24.9,29.95,WNW,283,4.0,6.0,52,0.00,,FEW080,0.00,VWS V14.01,2013-01-19 19:27:00,
2013-01-19 14:32:00,41.1,24.8,29.96,WNW,291,2.0,4.0,52,0.00,,FEW080,0.00,VWS V14.01,2013-01-19 19:32:00,
2013-01-19 14:37:00,41.0,24.7,29.96,NNE,18,2.0,5.0,52,0.01,,FEW080,0.01,VWS V14.01,2013-01-19 19:37:00,
2013-01-19 14:42:00,41.1,24.4,29.96,NW,325,2.0,8.0,51,0.01,,FEW080,0.01,VWS V14.01,2013-01-19 19:42:00,
2013-01-19 14:47:00,41.1,24.8,29.96,SSW,203,2.0,3.0,52,0.01,,FEW080,0.01,VWS V14.01,2013-01-19 19:47:00,
2013-01-19 14:52:00,41.1,24.4,29.96,NW,304,3.0,5.0,51,0.01,,FEW080,0.01,VWS V14.01,2013-01-19 19:52:00,
2013-01-19 14:57:00,41.2,24.5,29.97,West,264,2.0,4.0,51,0.01,,FEW080,0.01,VWS V14.01,2013-01-19 19:57:00,
2013-01-19 15:02:00,41.1,24.4,29.97,West,259,3.0,5.0,51,0.01,,OVC120,0.01,VWS V14.01,2013-01-19 20:02:00,
2013-01-19 15:07:00,41.1,24.4,29.96,WNW,291,3.0,4.0,51,0.01,,OVC120,0.01,VWS V14.01,2013-01-19 20:07:00,
2013-01-19 15:13:00,41.1,24.4,29.96,WSW,248,1.0,5.0,51,0.01,,OVC120,0.01,VWS V14.01,2013-01-19 20:13:00,
2013-01-19 15:19:00,41.1,24.4,29.96,SW,235,6.0,6.0,51,0.01,,OVC120,0.01,VWS V14.01,2013-01-19 20:19:00,
2013-01-19 15:24:00,41.1,24.4,29.96,WNW,282,3.0,4.0,51,0.01,,OVC120,0.01,VWS V14.01,2013-01-19 20:24:00,
2013-01-19 15:29:00,41.2,24.5,29.96,WSW,253,4.0,8.0,51,0.01,,OVC120,0.01,VWS V14.01,2013-01-19 20:29:00,
2013-01-19 15:34:00,41.2,24.5,29.96,SW,232,1.0,2.0,51,0.01,,OVC120,0.01,VWS V14.01,2013-01-19 20:34:00,
2013-01-19 15:39:00,41.2,24.5,29.96,West,270,1.0,4.0,51,0.01,,OVC120,0.01,VWS V14.01,2013-01-19 20:39:00,
2013-01-19 15:44:00,41.1,24.8,29.95,WSW,248,1.0,3.0,52,0.00,,OVC120,0.01,VWS V14.01,2013-01-19 20:44:00,
2013-01-19 15:49:00,41.1,24.8,29.95,WSW,245,2.0,3.0,52,0.00,,OVC120,0.01,VWS V14.01,2013-01-19 20:49:00,
2013-01-19 15:54:00,41.0,24.7,29.95,SW,233,5.0,7.0,52,0.00,,OVC120,0.01,VWS V14.01,2013-01-19 20:54:00,
2013-01-19 15:59:00,40.9,25.1,29.95,SW,223,2.0,5.0,53,0.01,,OVC120,0.02,VWS V14.01,2013-01-19 20:59:00,
2013-01-19 16:04:00,40.8,25.0,29.95,WSW,239,4.0,6.0,53,0.01,,CLR,0.02,VWS V14.01,2013-01-19 21:04:00,
2013-01-19 16:10:00,40.6,24.8,29.95,SSW,204,2.0,6.0,53,0.01,,CLR,0.02,VWS V14.01,2013-01-19 21:10:00,
2013-01-19 16:15:00,40.4,24.6,29.95,WSW,246,1.0,4.0,53,0.01,,CLR,0.02,VWS V14.01,2013-01-19 21:15:00,
2013-01-19 16:20:00,40.4,24.6,29.95,SSW,198,2.0,4.0,53,0.01,,CLR,0.02,VWS V14.01,2013-01-19 21:20:00,
2013-01-19 16:25:00,40.3,25.0,29.95,SW,227,2.0,5.0,54,0.01,,CLR,0.02,VWS V14.01,2013-01-19 21:25:00,
2013-01-19 16:30:00,40.1,24.8,29.95,WSW,240,7.0,8.0,54,0.01,,CLR,0.02,VWS V14.01,2013-01-19 21:30:00,
2013-01-19 16:35:00,40.1,24.8,29.95,WSW,241,3.0,6.0,54,0.01,,CLR,0.02,VWS V14.01,2013-01-19 21:35:00,
2013-01-19 16:40:00,40.1,25.2,29.95,SW,214,3.0,5.0,55,0.01,,CLR,0.02,VWS V14.01,2013-01-19 21:40:00,
2013-01-19 16:45:00,39.8,25.4,29.95,SSW,209,4.0,4.0,56,0.01,,CLR,0.02,VWS V14.01,2013-01-19 21:45:00,
2013-01-19 16:50:00,39.7,25.3,29.95,SW,215,2.0,4.0,56,0.01,,CLR,0.02,VWS V14.01,2013-01-19 21:50:00,
2013-01-19 16:56:00,39.6,25.2,29.95,SSW,193,2.0,4.0,56,0.01,,CLR,0.02,VWS V14.01,2013-01-19 21:56:00,
2013-01-19 17:01:00,39.5,25.1,29.95,SW,219,5.0,6.0,56,0.00,,FEW060,0.02,VWS V14.01,2013-01-19 22:01:00,
2013-01-19 17:06:00,39.5,25.5,29.95,SSW,198,3.0,5.0,57,0.00,,FEW060,0.02,VWS V14.01,2013-01-19 22:06:00,
2013-01-19 17:11:00,39.5,25.5,29.95,SW,226,4.0,4.0,57,0.00,,FEW060,0.02,VWS V14.01,2013-01-19 22:11:00,
2013-01-19 17:16:00,39.5,25.5,29.95,WSW,246,1.0,7.0,57,0.01,,FEW060,0.03,VWS V14.01,2013-01-19 22:16:00,
2013-01-19 17:21:00,39.4,25.9,29.95,SW,219,3.0,6.0,58,0.01,,FEW060,0.03,VWS V14.01,2013-01-19 22:21:00,
2013-01-19 17:26:00,39.5,25.5,29.96,WSW,240,3.0,5.0,57,0.01,,FEW060,0.03,VWS V14.01,2013-01-19 22:26:00,
2013-01-19 17:31:00,39.6,26.1,29.96,WSW,242,4.0,4.0,58,0.01,,FEW060,0.03,VWS V14.01,2013-01-19 22:31:00,
2013-01-19 17:36:00,39.6,26.1,29.96,WSW,257,1.0,7.0,58,0.01,,FEW060,0.03,VWS V14.01,2013-01-19 22:36:00,
2013-01-19 17:42:00,39.7,26.1,29.96,SW,222,2.0,4.0,58,0.01,,FEW060,0.03,VWS V14.01,2013-01-19 22:42:00,
2013-01-19 17:47:00,39.7,26.1,29.96,SSW,211,4.0,6.0,58,0.01,,FEW060,0.03,VWS V14.01,2013-01-19 22:47:00,
2013-01-19 17:52:00,39.7,26.1,29.96,WSW,242,4.0,6.0,58,0.01,,FEW060,0.03,VWS V14.01,2013-01-19 22:52:00,
2013-01-19 17:57:00,39.7,25.7,29.97,SW,235,6.0,6.0,57,0.01,,FEW060,0.03,VWS V14.01,2013-01-19 22:57:00,
2013-01-19 18:02:00,39.7,26.1,29.97,WSW,241,6.0,6.0,58,0.01,,BKN055,0.03,VWS V14.01,2013-01-19 23:02:00,
2013-01-19 18:07:00,39.7,26.1,29.97,SW,231,3.0,4.0,58,0.01,,BKN055,0.03,VWS V14.01,2013-01-19 23:07:00,
2013-01-19 18:12:00,39.7,26.1,29.97,SW,222,5.0,6.0,58,0.01,,BKN055,0.03,VWS V14.01,2013-01-19 23:12:00,
2013-01-19 18:17:00,39.7,26.1,29.97,SSW,204,3.0,5.0,58,0.01,,BKN055,0.03,VWS V14.01,2013-01-19 23:17:00,
2013-01-19 18:22:00,39.7,26.6,29.96,SSW,205,2.0,4.0,59,0.00,,BKN055,0.03,VWS V14.01,2013-01-19 23:22:00,
2013-01-19 18:28:00,39.6,26.5,29.96,WSW,255,1.0,2.0,59,0.00,,BKN055,0.03,VWS V14.01,2013-01-19 23:28:00,
2013-01-19 18:33:00,39.6,26.5,29.96,SSW,200,3.0,5.0,59,0.00,,BKN055,0.03,VWS V14.01,2013-01-19 23:33:00,
2013-01-19 18:38:00,39.5,26.4,29.96,SSW,205,1.0,2.0,59,0.00,,BKN055,0.03,VWS V14.01,2013-01-19 23:38:00,
2013-01-19 18:43:00,39.5,26.4,29.96,SSW,207,2.0,5.0,59,0.00,,BKN055,0.03,VWS V14.01,2013-01-19 23:43:00,
2013-01-19 18:48:00,39.6,26.1,29.96,NNW,338,1.0,5.0,58,0.00,,BKN055,0.03,VWS V14.01,2013-01-19 23:48:00,
2013-01-19 18:53:00,39.6,26.1,29.96,SSW,198,3.0,5.0,58,0.00,,BKN055,0.03,VWS V14.01,2013-01-19 23:53:00,
2013-01-19 18:59:00,39.7,26.1,29.96,WSW,245,2.0,7.0,58,0.00,,BKN055,0.03,VWS V14.01,2013-01-19 23:59:00,
2013-01-19 19:04:00,39.7,26.1,29.96,SW,218,3.0,5.0,58,0.00,,BKN055,0.03,VWS V14.01,2013-01-20 00:04:00,
2013-01-19 19:57:00,40.2,27.4,29.95,SSE,162,10.0,10.0,60,0.01,,BKN055,0.04,VWS V14.01,2013-01-20 00:57:00,
2013-01-19 20:02:00,40.4,27.6,29.95,SW,223,4.0,8.0,60,0.01,,FEW120,0.04,VWS V14.01,2013-01-20 01:02:00,
2013-01-19 20:07:00,40.6,27.4,29.95,SW,222,5.0,11.0,59,0.01,,FEW120,0.04,VWS V14.01,2013-01-20 01:07:00,
2013-01-19 20:13:00,40.8,27.6,29.95,SSW,213,11.0,11.0,59,0.01,,FEW120,0.04,VWS V14.01,2013-01-20 01:13:00,
2013-01-19 20:18:00,40.9,27.7,29.95,SSW,207,9.0,13.0,59,0.01,,FEW120,0.04,VWS V14.01,2013-01-20 01:18:00,
2013-01-19 20:23:00,40.9,27.7,29.95,WSW,241,4.0,9.0,59,0.01,,FEW120,0.04,VWS V14.01,2013-01-20 01:23:00,
2013-01-19 20:28:00,40.9,27.7,29.95,West,266,4.0,6.0,59,0.01,,FEW120,0.04,VWS V14.01,2013-01-20 01:28:00,
2013-01-19 20:33:00,40.8,28.0,29.95,SSW,197,3.0,4.0,60,0.01,,FEW120,0.04,VWS V14.01,2013-01-20 01:33:00,
2013-01-19 20:38:00,40.8,28.0,29.95,SW,236,2.0,7.0,60,0.01,,FEW120,0.04,VWS V14.01,2013-01-20 01:38:00,
2013-01-19 20:43:00,40.8,28.0,29.95,SW,221,5.0,10.0,60,0.01,,FEW120,0.04,VWS V14.01,2013-01-20 01:43:00,
2013-01-19 20:48:00,40.8,28.4,29.95,SSW,198,2.0,4.0,61,0.01,,FEW120,0.04,VWS V14.01,2013-01-20 01:48:00,
2013-01-19 20:53:00,40.8,28.4,29.95,WSW,250,3.0,5.0,61,0.00,,FEW120,0.04,VWS V14.01,2013-01-20 01:53:00,
2013-01-19 20:59:00,40.8,28.4,29.95,WSW,238,2.0,6.0,61,0.00,,FEW120,0.04,VWS V14.01,2013-01-20 01:59:00,
2013-01-19 21:04:00,40.6,28.2,29.95,SSE,149,2.0,5.0,61,0.01,,OVC120,0.05,VWS V14.01,2013-01-20 02:04:00,
2013-01-19 21:09:00,40.6,28.2,29.95,NW,309,2.0,6.0,61,0.01,,OVC120,0.05,VWS V14.01,2013-01-20 02:09:00,
2013-01-19 21:14:00,40.5,28.1,29.95,SW,228,1.0,2.0,61,0.01,,OVC120,0.05,VWS V14.01,2013-01-20 02:14:00,
2013-01-19 21:19:00,40.4,28.4,29.94,SSW,211,4.0,6.0,62,0.01,,OVC120,0.05,VWS V14.01,2013-01-20 02:19:00,
2013-01-19 21:24:00,40.4,28.4,29.94,SSE,156,2.0,7.0,62,0.01,,OVC120,0.05,VWS V14.01,2013-01-20 02:24:00,
2013-01-19 21:29:00,40.2,28.6,29.94,SW,218,4.0,5.0,63,0.01,,OVC120,0.05,VWS V14.01,2013-01-20 02:29:00,
2013-01-19 21:34:00,40.1,28.5,29.94,SW,235,2.0,7.0,63,0.01,,OVC120,0.05,VWS V14.01,2013-01-20 02:34:00,
2013-01-19 21:39:00,40.0,28.8,29.93,SW,231,1.0,5.0,64,0.01,,OVC120,0.05,VWS V14.01,2013-01-20 02:39:00,
2013-01-19 21:44:00,39.9,28.7,29.93,West,269,1.0,4.0,64,0.01,,OVC120,0.05,VWS V14.01,2013-01-20 02:44:00,
2013-01-19 21:49:00,39.8,28.6,29.93,SSW,213,3.0,4.0,64,0.01,,OVC120,0.05,VWS V14.01,2013-01-20 02:49:00,
2013-01-19 21:54:00,39.8,28.6,29.93,SSW,207,2.0,4.0,64,0.01,,OVC120,0.05,VWS V14.01,2013-01-20 02:54:00,
2013-01-19 21:59:00,39.8,28.6,29.93,SW,222,1.0,2.0,64,0.01,,OVC120,0.05,VWS V14.01,2013-01-20 02:59:00,
2013-01-19 22:04:00,39.8,28.6,29.92,SW,226,4.0,4.0,64,0.01,,BKN120,0.05,VWS V14.01,2013-01-20 03:04:00,
2013-01-19 22:09:00,39.9,28.7,29.92,WSW,253,2.0,4.0,64,0.01,,BKN120,0.05,VWS V14.01,2013-01-20 03:09:00,
2013-01-19 22:14:00,39.8,28.6,29.92,SSW,204,2.0,7.0,64,0.00,,BKN120,0.05,VWS V14.01,2013-01-20 03:14:00,
2013-01-19 22:19:00,39.9,29.1,29.91,SW,218,2.0,5.0,65,0.00,,BKN120,0.05,VWS V14.01,2013-01-20 03:19:00,
2013-01-19 22:24:00,40.0,28.8,29.91,SSW,208,4.0,7.0,64,0.00,,BKN120,0.05,VWS V14.01,2013-01-20 03:24:00,
2013-01-19 22:30:00,40.1,29.3,29.91,West,263,2.0,5.0,65,0.00,,BKN120,0.05,VWS V14.01,2013-01-20 03:30:00,
2013-01-19 22:35:00,40.1,29.3,29.90,WSW,257,1.0,4.0,65,0.00,,BKN120,0.05,VWS V14.01,2013-01-20 03:35:00,
2013-01-19 22:40:00,40.1,29.3,29.90,WSW,246,3.0,4.0,65,0.00,,BKN120,0.05,VWS V14.01,2013-01-20 03:40:00,
2013-01-19 22:45:00,40.0,29.6,29.89,WNW,283,1.0,2.0,66,0.00,,BKN120,0.05,VWS V14.01,2013-01-20 03:45:00,
2013-01-19 22:50:00,39.9,29.5,29.89,SW,232,1.0,5.0,66,0.00,,BKN120,0.05,VWS V14.01,2013-01-20 03:50:00,
2013-01-19 22:55:00,39.9,29.5,29.89,West,259,3.0,3.0,66,0.00,,BKN120,0.05,VWS V14.01,2013-01-20 03:55:00,
2013-01-19 23:00:00,39.8,29.8,29.88,West,281,2.0,2.0,67,0.00,,BKN120,0.05,VWS V14.01,2013-01-20 04:00:00,
2013-01-19 23:05:00,39.6,29.6,29.88,West,270,0.0,2.0,67,0.00,,FEW110,0.05,VWS V14.01,2013-01-20 04:05:00,
2013-01-19 23:10:00,39.5,29.8,29.88,WSW,250,1.0,3.0,68,0.00,,FEW110,0.05,VWS V14.01,2013-01-20 04:10:00,
2013-01-19 23:15:00,39.4,29.7,29.87,WSW,253,1.0,2.0,68,0.00,,FEW110,0.05,VWS V14.01,2013-01-20 04:15:00,
2013-01-19 23:20:00,39.4,30.1,29.87,West,263,1.0,4.0,69,0.00,,FEW110,0.05,VWS V14.01,2013-01-20 04:20:00,
2013-01-19 23:25:00,39.4,29.7,29.87,WSW,253,2.0,6.0,68,0.00,,FEW110,0.05,VWS V14.01,2013-01-20 04:25:00,
2013-01-19 23:30:00,39.4,29.7,29.86,WSW,257,3.0,7.0,68,0.00,,FEW110,0.05,VWS V14.01,2013-01-20 04:30:00,
2013-01-19 23:35:00,39.4,29.7,29.86,WSW,253,1.0,4.0,68,0.00,,FEW110,0.05,VWS V14.01,2013-01-20 04:35:00,
2013-01-19 23:40:00,39.4,29.4,29.86,WSW,252,6.0,12.0,67,0.00,,FEW110,0.05,VWS V14.01,2013-01-20 04:40:00,
2013-01-19 23:45:00,39.5,29.5,29.86,South,181,3.0,5.0,67,0.00,,FEW110,0.05,VWS V14.01,2013-01-20 04:45:00,
2013-01-19 23:50:00,39.6,29.9,29.86,SSW,210,6.0,8.0,68,0.00,,FEW110,0.05,VWS V14.01,2013-01-20 04:50:00,
2013-01-19 23:55:00,39.7,30.4,29.86,WSW,252,2.0,7.0,69,0.00,,FEW110,0.05,VWS V14.01,2013-01-20 04:55:00,